Tracking 19847 objects as of 16-Sep-2019
HD Live streaming from Space Station
objects crossing your sky now

FENGYUN 1C DEB

Track FENGYUN 1C DEB now!
10-day predictions


NORAD ID: 36716
Int'l Code: 1999-025EAN
Perigee: 836.8 km
Apogee: 1,056.8 km
Inclination: 99.2 °
Period: 103.8 minutes
Semi major axis: 7317 km
RCS: 0.0064 m2 (small)
Launch date: May 10, 1999
Source: People's Republic of China (PRC)
Launch site: Taiyaun Space Center, China (TSC)

Note: This is SATELLITE DEBRIS
aabbcc
Your satellite tracking list
Your tracking list is empty




NASA's NSSDC Master Catalog

Two Line Element Set (TLE):
1 36716U 99025EAN 19258.60211731  .00000014  00000-0  45832-4 0  9995
2 36716  99.1957 177.0791 0150323 238.2060 120.4381 13.86868963593152
Source of the keplerian elements: AFSPC